Theta_e
289 290 290 289 288 289 287 287 283 284 281 285 288 286 288 290 290 291 291 292 293 294 295 296 298 301 303 305 308 312 315 318 328 333 337 338 338 337 331 328 323 319 315 311
287 290 289 287 288 288 287 286 284 284 282 289 289 289 288 288 288 288 289 291 293 294 295 296 297 301 302 304 308 312 315 317 325 331 334 334 336 330 326 321 316 313 308 307
282 286 285 279 280 283 283 286 285 280 285 288 286 286 286 287 288 288 289 290 292 293 294 295 296 300 300 302 307 311 314 318 323 330 331 331 329 324 318 314 312 307 303 301
282 281 272 283 288 288 286 286 287 286 286 286 286 287 288 289 288 289 291 292 293 294 294 296 299 299 300 304 307 312 316 318 323 327 323 322 319 315 313 310 306 303 299 298
280 277 282 284 287 284 283 281 287 284 285 285 287 287 287 292 294 294 294 294 295 296 296 297 298 300 303 306 309 315 317 318 323 322 319 317 313 310 308 304 302 299 298 294
283 278 274 282 289 292 288 276 287 286 284 284 285 279 285 292 292 292 293 295 295 297 298 298 300 304 306 308 310 310 312 319 321 320 316 312 310 307 306 304 300 297 293 291
281 280 282 289 291 291 275 279 287 286 286 285 282 285 288 290 293 298 298 300 300 299 299 302 306 309 308 310 308 310 314 319 318 315 312 309 307 305 302 299 296 293 291 290
280 275 275 293 289 282 286 288 287 287 286 285 286 288 291 296 299 300 301 302 304 304 304 307 308 306 304 305 314 315 314 311 310 310 308 306 303 300 298 296 292 289 288 288
284 283 291 293 290 293 293 287 288 286 287 288 289 291 295 297 298 299 300 301 301 301 303 304 304 305 301 302 306 305 303 302 303 303 301 300 298 297 294 292 290 288 287 287
284 288 289 292 294 294 293 290 290 290 290 291 291 294 296 297 298 298 298 297 298 298 299 299 301 302 301 303 303 302 300 300 300 299 298 298 297 295 293 290 289 288 288 288
286 290 291 292 293 293 291 291 291 291 292 292 293 293 295 296 296 296 296 296 297 296 296 296 298 298 299 300 299 298 298 298 298 297 295 294 295 294 293 293 292 289 290 290
285 291 290 289 293 292 290 289 291 291 290 293 294 293 294 293 295 295 294 295 295 294 293 294 295 296 296 297 297 295 294 294 293 292 292 292 291 290 291 291 291 291 291 291
292 294 294 294 295 293 290 291 292 291 292 292 294 293 293 293 294 295 294 294 293 292 292 292 292 293 295 296 295 294 292 293 293 292 292 291 291 289 287 289 290 290 290 290
296 295 293 294 291 292 292 292 292 292 293 293 293 294 294 293 294 293 293 294 294 293 292 291 291 291 294 295 295 293 293 293 293 292 292 291 291 290 290 289 288 288 289 289
296 297 296 295 294 292 293 292 291 291 292 291 293 294 294 293 292 293 294 294 294 292 291 291 290 289 292 293 293 292 292 291 291 291 290 290 290 289 289 289 288 287 287 288
296 296 296 295 292 291 291 291 291 291 291 290 292 293 294 293 294 293 294 294 291 290 291 291 289 290 292 291 291 291 290 290 290 289 289 289 289 289 289 288 288 287 286 286
293 293 295 294 291 290 291 292 292 292 291 292 292 293 294 293 294 293 294 294 293 293 293 292 291 292 292 291 291 290 290 290 290 290 289 289 289 289 289 288 287 286 286 286
296 296 295 293 292 291 291 292 293 293 292 294 294 295 294 294 293 293 293 294 294 293 294 294 293 292 292 292 291 291 290 289 289 289 289 289 289 289 288 287 287 286 285 285
296 295 294 293 293 292 292 292 293 294 294 295 294 294 294 294 294 294 294 294 293 292 293 296 294 292 290 291 291 290 290 289 289 289 289 288 288 288 287 287 286 286 286 286
296 296 295 294 294 293 293 294 294 294 294 295 294 294 293 293 294 294 294 293 294 295 296 297 295 292 291 290 290 291 290 290 289 289 289 288 288 287 287 286 287 287 287 286
295 296 294 293 293 294 294 294 294 293 294 295 294 293 294 294 295 295 294 291 293 294 294 294 294 292 292 291 291 291 290 290 289 289 288 288 288 288 288 288 288 287 287 287
296 295 295 295 294 294 295 295 295 295 294 294 295 295 294 294 295 295 295 292 292 290 294 294 293 289 290 289 291 290 290 289 288 289 288 288 288 288 288 288 288 288 288 288
296 296 296 295 294 294 296 296 296 295 294 294 294 294 293 294 294 293 292 293 292 290 292 291 287 287 287 291 290 290 289 289 289 289 289 289 289 288 288 288 289 288 288 288
297 297 296 297 297 296 294 295 295 295 295 296 296 296 295 294 293 293 292 291 288 290 291 290 288 287 288 291 290 290 289 289 289 289 289 287 289 289 289 289 289 289 289 288
295 295 296 296 295 294 295 295 295 295 295 294 295 295 294 293 293 292 291 291 288 291 290 286 287 287 291 291 290 290 289 289 289 289 290 290 289 289 289 290 290 290 290 290
293 293 295 296 295 295 295 294 293 293 293 292 292 293 292 292 291 291 291 290 292 290 291 292 292 292 292 291 290 290 290 289 290 290 290 290 289 289 289 290 290 290 291 290
293 291 292 291 292 294 294 293 292 292 293 293 292 291 291 290 290 290 289 291 292 292 292 292 292 291 292 292 291 291 291 290 289 291 291 290 291 290 290 290 291 291 290 290
Wind_Speed
16 21 21 24 25 22 19 19 14 20 19 22 20 12 16 18 20 21 21 20 19 18 18 15 14 14 11 12 13 12 11 10 13 15 17 18 18 17 17 18 18 19 20 18
14 18 19 22 19 15 12 5 11 16 27 16 16 16 21 23 22 24 25 23 22 21 21 17 15 13 13 14 14 12 11 11 11 14 16 19 18 18 19 19 22 22 20 21
8 5 14 7 3 1 4 8 13 19 24 11 20 24 24 25 24 26 27 25 24 21 18 16 17 13 14 14 14 13 14 12 10 16 16 18 18 20 21 21 21 23 22 21
6 8 4 2 4 2 12 16 17 15 12 20 25 23 26 26 25 25 22 21 18 16 16 15 13 14 16 15 16 15 13 12 11 11 17 19 22 24 22 21 22 18 23 23
4 3 11 1 2 6 11 29 2 9 22 22 23 25 25 10 12 16 20 20 19 18 17 17 18 16 16 16 14 14 11 9 10 18 20 22 23 24 24 24 22 21 18 19
3 4 6 2 2 14 8 8 5 19 20 23 22 13 19 24 28 27 22 17 18 17 16 15 18 17 18 17 14 18 8 9 17 22 24 23 24 24 21 24 23 21 21 20
6 6 8 3 10 8 4 7 19 18 21 22 17 12 24 29 28 19 15 16 15 14 14 15 15 13 12 23 18 11 13 18 19 22 23 23 21 21 20 25 24 21 20 19
3 3 8 7 3 2 6 8 18 19 21 21 22 25 23 21 16 14 14 13 12 9 9 8 10 6 9 13 14 18 22 22 22 22 17 19 24 18 18 23 26 25 21 16
6 7 3 8 10 10 8 14 16 17 20 21 22 22 20 16 15 14 14 12 13 10 7 12 12 8 17 13 17 26 27 25 24 24 21 21 23 20 15 22 19 18 16 16
1 5 7 7 9 10 4 12 16 17 19 17 19 18 16 14 13 13 13 12 12 12 11 15 13 14 15 13 20 24 29 28 26 25 22 19 20 14 13 18 20 16 15 15
6 9 9 6 5 10 9 11 16 17 15 17 15 15 14 13 14 12 12 12 12 11 13 17 15 15 14 14 20 25 24 24 24 22 23 20 16 12 14 13 14 18 14 14
5 3 3 7 6 7 10 12 14 15 16 16 14 14 13 11 11 11 12 12 11 13 18 17 16 18 16 14 18 24 23 18 18 21 19 17 18 18 29 27 22 20 20 16
4 3 5 9 4 6 9 11 11 11 13 14 14 12 10 10 12 15 13 13 13 15 17 18 21 21 17 17 22 23 23 21 19 23 17 16 16 18 19 19 27 26 27 25
4 2 6 3 2 6 9 9 10 9 9 10 11 10 10 10 11 12 12 12 13 17 19 19 22 22 17 19 23 23 22 29 18 16 15 15 16 17 15 15 15 14 20 20
3 6 9 1 1 6 7 7 7 9 10 11 10 10 10 11 12 10 10 10 14 18 18 20 22 19 15 17 20 20 17 15 16 16 15 18 16 16 15 15 15 14 13 16
3 2 3 3 4 4 6 7 8 9 9 9 10 11 11 13 11 12 12 12 15 16 14 18 21 16 15 17 20 18 16 24 19 15 16 16 14 15 15 14 14 13 11 10
2 3 4 3 4 3 5 6 7 8 6 7 10 8 10 10 11 14 13 14 17 18 15 16 19 16 15 16 17 12 12 14 20 16 15 14 14 14 14 13 12 11 9 8
1 2 2 5 4 3 5 7 7 8 9 9 8 9 11 11 12 14 16 15 17 18 18 17 16 15 14 14 13 12 12 13 13 15 14 14 13 13 12 12 11 11 9 10
4 7 7 5 7 5 5 7 7 8 8 9 10 12 13 13 13 14 15 16 16 18 14 12 20 16 15 14 14 12 13 15 14 13 13 16 13 12 11 11 11 10 10 9
8 9 8 7 8 5 6 7 8 10 9 10 11 13 14 14 14 15 14 16 13 9 11 11 13 13 13 15 15 12 14 15 14 12 11 12 12 12 11 12 11 10 9 8
9 9 9 9 7 6 7 8 9 11 10 11 12 12 12 12 11 10 11 10 10 7 7 8 11 10 9 11 12 12 12 13 13 12 12 11 11 11 11 10 10 9 9 8
7 8 8 7 9 8 9 8 7 10 10 12 13 13 15 13 10 7 7 7 5 8 7 7 8 10 9 14 11 11 12 12 10 10 10 10 10 10 9 9 9 8 8 8
7 8 7 6 7 7 9 7 7 11 11 12 13 12 10 6 5 7 8 10 7 9 8 7 9 10 11 9 10 11 11 10 9 9 9 9 9 9 8 8 8 8 8 7
8 8 6 5 5 6 9 7 9 10 10 11 12 9 6 4 5 4 4 8 12 11 7 6 9 11 9 8 8 9 8 8 8 8 8 9 8 8 8 8 8 7 7 6
7 6 6 7 5 5 7 8 8 10 9 7 4 3 4 4 3 3 4 4 9 8 6 7 9 10 8 8 8 8 8 7 7 7 7 8 8 7 7 7 7 7 7 6
6 4 4 5 5 5 5 5 6 4 3 2 3 3 4 3 3 3 4 5 5 8 5 3 6 8 7 7 8 8 8 7 7 7 8 7 7 7 7 7 6 6 6 6
5 6 5 4 3 4 5 5 6 4 5 3 3 3 3 3 3 4 5 4 4 6 5 5 6 8 7 7 7 6 6 5 6 7 6 7 6 7 7 6 6 5 5 6
Wind_Direction
249 261 271 273 276 280 272 271 273 300 296 296 303 321 305 301 295 292 283 282 274 274 275 274 273 274 276 275 279 272 267 259 238 204 188 175 164 157 143 139 126 126 120 110
270 263 264 272 274 276 280 291 279 286 287 305 318 309 303 295 287 285 286 282 279 277 277 283 283 276 280 281 271 273 264 253 248 207 182 174 152 134 133 125 123 119 116 114
275 334 306 278 219 144 290 284 296 290 301 334 313 311 300 296 290 284 281 278 278 280 283 271 260 255 267 269 269 269 263 263 247 208 178 160 134 127 122 122 123 119 115 114
289 339 315 200 97 284 282 281 281 290 320 317 307 294 289 287 279 275 273 276 280 275 269 262 262 262 262 257 254 249 250 254 240 196 128 130 128 124 123 122 119 120 119 122
291 244 279 170 46 313 319 311 79 338 321 311 310 308 297 268 284 296 298 293 282 278 269 271 268 263 254 250 242 239 238 231 220 128 133 131 128 127 124 120 116 112 111 120
295 275 274 150 295 319 309 279 17 334 316 313 318 310 303 318 313 304 292 282 275 271 272 270 267 258 250 235 238 235 232 218 149 138 133 134 133 127 132 121 118 118 116 123
258 261 277 38 344 321 39 289 318 318 309 308 306 278 286 298 299 301 294 291 284 276 267 267 268 266 277 221 205 237 237 149 135 128 126 125 119 123 128 115 116 110 110 108
250 268 288 11 5 353 275 304 300 304 305 303 301 302 306 306 325 334 342 341 348 336 319 338 14 44 49 67 122 116 114 118 117 116 116 114 113 108 125 124 111 114 114 113
210 237 244 350 294 283 300 300 302 302 304 302 303 309 314 332 334 341 351 346 355 340 4 40 39 21 72 67 101 110 105 104 102 101 102 109 109 109 126 107 109 111 118 115
353 251 251 289 297 294 294 304 305 301 302 308 307 322 338 341 343 354 7 8 6 6 35 51 44 59 70 88 106 101 106 105 103 99 99 106 93 111 106 112 112 123 120 123
251 278 291 272 260 312 321 315 306 309 315 313 324 339 346 354 3 8 11 10 18 28 54 53 56 60 70 85 98 98 97 101 103 100 92 87 89 97 102 87 104 126 124 125
254 222 256 277 292 350 322 320 313 317 323 329 349 349 357 9 10 17 22 20 32 40 57 55 59 67 68 75 89 97 96 95 100 96 94 97 96 85 66 82 83 88 97 106
234 189 240 273 326 336 322 319 324 323 322 338 353 2 356 14 25 30 28 31 39 51 58 57 57 60 61 74 79 80 87 90 92 91 100 102 101 106 108 77 79 83 89 95
221 271 276 235 316 338 321 328 330 319 343 346 3 3 10 19 36 36 37 44 52 63 60 63 63 56 53 65 74 77 81 86 90 99 106 109 109 108 109 107 105 96 82 102
250 225 251 34 73 358 327 350 334 356 356 6 360 5 21 30 42 45 46 52 70 71 69 74 67 55 50 67 77 82 86 88 94 98 98 98 100 101 102 104 103 106 105 89
230 342 166 222 97 8 346 357 355 3 8 358 9 15 23 46 42 43 49 66 71 72 75 78 79 72 66 74 82 82 85 95 98 98 99 97 99 104 106 106 105 105 107 113
30 354 310 314 96 8 19 15 11 21 23 1 38 11 48 51 56 63 55 51 68 76 79 80 84 81 72 73 84 94 94 95 100 97 101 104 106 105 105 106 108 109 106 104
38 332 41 62 90 47 32 36 29 39 35 39 38 44 56 51 56 65 70 67 67 66 62 68 81 83 74 80 87 93 96 95 94 95 98 100 102 100 101 106 109 105 101 94
72 88 77 72 72 74 51 53 49 53 50 44 54 53 58 56 59 65 74 73 75 79 74 71 76 78 78 81 84 85 87 92 92 94 99 100 96 99 101 102 102 103 112 117
107 90 90 83 79 78 72 69 62 65 53 57 67 67 69 70 73 70 65 57 47 59 74 66 75 84 87 85 88 94 98 98 100 99 98 101 101 102 103 100 110 113 115 113
116 101 94 92 90 78 75 80 78 80 66 66 72 71 73 74 58 43 47 51 29 35 61 60 81 80 81 91 91 95 97 103 104 108 105 105 108 107 111 112 110 110 112 110
129 113 106 99 91 85 82 87 79 86 81 83 75 74 77 73 57 45 60 55 46 58 83 73 70 70 82 85 93 96 98 97 100 101 101 108 109 111 108 108 112 112 112 113
138 125 123 122 112 99 98 89 95 93 94 86 84 80 74 62 30 39 50 23 50 59 79 78 85 83 82 89 97 100 101 101 102 105 105 109 111 112 114 115 113 113 113 118
126 129 126 110 103 86 89 88 87 93 99 101 102 103 75 42 23 11 43 36 59 73 89 106 91 82 82 91 93 97 98 99 105 110 106 104 107 108 108 113 117 115 114 120
114 115 121 127 115 105 106 97 98 100 120 120 127 74 66 33 55 34 52 48 59 72 69 62 96 94 92 98 107 106 103 110 116 117 113 113 118 117 115 120 121 133 135 135
117 134 133 135 139 132 122 118 118 119 121 93 41 50 46 36 35 20 40 75 88 101 106 110 94 92 88 94 103 107 112 117 119 118 123 122 125 124 122 128 135 137 124 127
87 98 101 81 85 133 137 137 132 140 145 133 84 26 39 61 53 61 70 85 95 90 83 78 92 99 110 113 109 112 117 117 118 128 121 122 130 132 135 136 135 131 133 132